COSMOS 716

Satellite information

Favourite Embed

Satellite Type and Status

PAYLOADIN ORBIT

Key statistics

Satellite COSMOS 716 at a glance.

Uptime

18393

Days in orbit

Revolutions

≈ 12.4

Per day

Orbit

LEO

Low Earth Orbit

Inclination

74.0

Latest

Satellite identification and parameters

Extended collection of information and parameters for COSMOS 716.

Object identification

Identified? True

Debris? False

Object name: COSMOS 716

International designator: 1975-016F

Object number (NORAD): 7683

Object ID (CCSDS): 7683

Country: COMMONWEALTH OF INDEPENDENT STATES (CIS)

Current information (Y/N): Y

RCS size: MEDIUM

Orbital parameters

Period: 115.901 minutes

Inclination: 74.0044 deg

SMA: 7874.403 km

Apoapsis: 1513.479 km

Periapsis: 1479.057 km

RAAN: 6.9235 deg

Eccentricy: 0.0021857

Argument of periapsis: 25.6272 deg

Mean anomaly: 42.0808 deg

Mean motion: 12.42442568 rev/day

Mean motion (dot): -0.00000007 rev/day2

B* drag term: 0.000064074 1/REarth

Two-line elements (TLE)

Creation date: July 6, 2025, 6:05 p.m.

Reference frame: TEME

Reference center: EARTH

Epoch: July 6, 2025, 3:17 p.m. UTC

TLE line 0: 0 COSMOS 716

TLE line 1: 1 07683U 75016F 25187.63687078 -.00000007 00000-0 64074-4 0 9994

TLE line 2: 2 07683 74.0044 6.9235 0021857 25.6272 42.0808 12.42442568283752

Live tracking on map

Real-time ground track for satellite COSMOS 716.

In-orbit conjunctions

A list of the most updated potential collisions computed for object COSMOS 716.

Target Orbit TCA Probability of collision Miss distance Type
DELTA 1 DEB SSO 2024-05-31 23:24:05 0.0001448637 165.0 (m) DEBRIS

Associated space launch

Military communications satellites

COSMOS 716 was lifted into orbit during the mission ‘Kosmos-3M | Strela-1M 81-88’, on board a Kosmos-3M space rocket.

The launch took place on Feb. 28, 1975, 2:01 p.m. from 132/2.

For more information about the launch, click the button.

Launch to space Kosmos-3M | Strela-1M 81-88
Kosmos-3M | Strela-1M 81-88

Agency: N/A

Status: Launch Successful

Launch date: Feb. 28, 1975, 2:01 p.m. UTC

Rocket: Kosmos-3M

Launch pad: 132/2

Location: Plesetsk Cosmodrome, Russian Federation

...

Latest news about this satellite

There are no fresh news available about this satellite. Check back as we update our databases every day.


Newsletter sign-up

Weekly statistics, charts and insights to help you stay on top of the space industry.